Location: Mizzole
(45.4833°N, 11.0500°E)
Time: 02:28:02
(UTC+00:00)

Cosmos 2061 Rocket - Pass Details

Date: 21 October 2019
Orbit: 965 x 1013 km, 82.9° (Epoch: 21 November)

Event Time Altitude Azimuth Distance (km) Brightness Sun altitude
Rises 18:38:00 0° 351° (N) 3,690 7.3 -24.7°
Reaches altitude 10° 18:40:32 10° 352° (N) 2,732 6.5 -25.1°
Maximum altitude 18:46:48 87° 83° (E) 977 3.8 -26.2°
Enters shadow 18:49:21 39° 170° (S) 1,424 4.6 -26.7°
